sat.trackr.live / text

‹ back to catalog

STARLINK-6081

NORAD 56108 · 2023-046R

PAYLOAD ACTIVE UNKNOWN

§ Identity

Operator
Country
US
Launch date
2023-03-29
Launch site
AFETR
Launch vehicle
Mass (kg)
RCS (m²)

Purposes: comms

External: N2YO · Heavens-Above · Gunter

§ Orbital elements

Epoch: 2026-09-20T00:38:44.565216Z

Period
94.27 min
Inclination
43.0021°
Eccentricity
0.0000944
Mean motion
15.27575534 rev/d
Perigee alt
482.4 km
Apogee alt
483.7 km
Semi-major
6,861.2 km
B*
1.3238e-5
RAAN
143.9646°
Arg perigee
252.1741°
Mean anomaly
107.9007°
Rev number
19,175

§ Raw data

STARLINK-60811 56108U 23046R   26263.02690469  .00000102  00000+0  13238-4 0  99932 56108  43.0021 143.9646 0000944 252.1741 107.9007 15.27575534191755

JSON: /api/v1/satellites/56108 · /tle

For live sub-satellite position, see the globe view (requires WebGL).

§ Visibility from observer

Set your observer location to see the next 7 days of passes ≥ 10°. The values pass through the URL so the page stays shareable.

No JS? Fill the form by hand. The geolocation button needs JavaScript.